Gwinn, MI

3:57 PM EDT on July 26, 2017 (GMT -0400)
Sawyer International

Weather History for KSAW - May, 2014

Change the Weather History Date:

Wednesday, May 28, 2014

  Actual Average (KESC) Record (KESC)
Temperature  
Mean Temperature 49 °F -  
Max Temperature 60 °F 63 °F 87 °F (1998)
Min Temperature 38 °F 47 °F 30 °F (2008)
Degree Days  
Heating Degree Days 16    
Moisture  
Dew Point 41 °F    
Average Humidity 73    
Maximum Humidity 90    
Minimum Humidity 55    
Precipitation  
Precipitation 0.00 in - - ()
Sea Level Pressure  
Sea Level Pressure 30.11 in    
Wind  
Wind Speed 7 mph (NNE)    
Max Wind Speed 14 mph    
Max Gust Speed 21 mph    
Visibility 10 miles    
Events      
Averages and records for this station are not official NWS values.
T = Trace of Precipitation, MM = Missing Value Source: NWS Daily Summary

Daily Weather History Graph

Daily Weather History Graph

Search for Another Location

Airport or City:

Trip Planner

Search our weather history database for the weather conditions in past years. The results will help you decide how hot, cold, wet, or windy it might be!

Date:

Astronomy

May. 28, 2014 Rise Set
Actual Time 6:03 AM EDT 9:30 PM EDT
Civil Twilight 5:26 AM EDT 10:08 PM EDT
Nautical Twilight 4:37 AM EDT 10:57 PM EDT
Astronomical Twilight 3:33 AM EDT 12:01 AM EDT
Moon 6:13 AM EDT (5/28) 9:25 PM EDT (5/28)
Length of Visible Light 16h 41m
Length of Day
15h 26m
Waning Crescent, 0% of the Moon is Illuminated
May 28
Waning Crescent
May 28
New
Jun 5
First Quarter
Jun 13
Full
Jun 19
Last Quarter

Hourly Weather History & Observations

Time (EDT) Temp. Windchill Dew Point Humidity Pressure Visibility Wind Dir Wind Speed Gust Speed Precip Events Conditions
12:16 AM 43.9 °F 40.5 °F 37.4 °F 78% 30.03 in 10.0 mi North 5.8 mph - N/A   Clear
12:37 AM 45.1 °F 42.0 °F 38.1 °F 76% 30.04 in 10.0 mi North 5.8 mph - N/A   Clear
12:56 AM 44.8 °F 41.6 °F 37.8 °F 76% 30.04 in 10.0 mi NNE 5.8 mph - N/A   Clear
1:17 AM 48.2 °F - 39.7 °F 73% 30.04 in 10.0 mi NNE 9.2 mph - N/A   Clear
1:37 AM 48.4 °F - 39.6 °F 72% 30.05 in 10.0 mi NNE 9.2 mph - N/A   Clear
1:56 AM 48.0 °F - 39.2 °F 72% 30.05 in 10.0 mi NNE 10.4 mph - N/A   Clear
2:17 AM 46.9 °F - 38.8 °F 73% 30.06 in 10.0 mi NE 8.1 mph - N/A   Clear
2:37 AM 46.4 °F 41.5 °F 38.8 °F 75% 30.05 in 10.0 mi NNE 10.4 mph - N/A   Clear
2:56 AM 46.4 °F 41.5 °F 38.7 °F 74% 30.05 in 10.0 mi NNE 10.4 mph - N/A   Clear
3:17 AM 45.7 °F 42.0 °F 38.5 °F 76% 30.06 in 10.0 mi NNE 6.9 mph - N/A   Clear
3:36 AM 43.9 °F 39.9 °F 37.9 °F 80% 30.06 in 10.0 mi NNE 6.9 mph - N/A   Clear
3:57 AM 42.1 °F 39.2 °F 37.2 °F 83% 30.06 in 10.0 mi NNE 4.6 mph - N/A   Clear
4:17 AM 42.1 °F - 37.4 °F 83% 30.07 in 10.0 mi Calm Calm - N/A   Clear
4:36 AM 42.4 °F 39.6 °F 37.6 °F 83% 30.06 in 10.0 mi North 4.6 mph - N/A   Clear
4:57 AM 42.8 °F 40.1 °F 37.4 °F 81% 30.07 in 10.0 mi North 4.6 mph - N/A   Clear
5:16 AM 40.6 °F 37.5 °F 36.7 °F 86% 30.08 in 10.0 mi NNE 4.6 mph - N/A   Clear
5:37 AM 39.6 °F 36.3 °F 35.6 °F 86% 30.08 in 10.0 mi North 4.6 mph - N/A   Clear
5:57 AM 38.5 °F 35.0 °F 35.4 °F 89% 30.08 in 10.0 mi North 4.6 mph - N/A   Clear
6:55 AM 41.0 °F - 37.4 °F 87% 30.09 in 10.0 mi Calm Calm - N/A   Clear
7:50 AM 50.0 °F - 41.0 °F 71% 30.11 in 10.0 mi NNE 5.8 mph - N/A   Clear
8:50 AM 51.8 °F - 41.0 °F 67% 30.12 in 10.0 mi ENE 6.9 mph - N/A   Clear
9:55 AM 55.4 °F - 42.8 °F 63% 30.13 in 10.0 mi ENE 8.1 mph - N/A   Clear
10:55 AM 57.2 °F - 42.8 °F 59% 30.13 in 10.0 mi NE 8.1 mph - N/A   Clear
11:50 AM 59.0 °F - 44.6 °F 59% 30.15 in 10.0 mi ENE 10.4 mph - N/A   Clear
12:55 PM 59.0 °F - 44.6 °F 59% 30.15 in 10.0 mi NNE 9.2 mph - N/A   Clear
1:50 PM 60.8 °F - 44.6 °F 55% 30.15 in 10.0 mi North 13.8 mph 19.6 mph N/A   Clear
2:50 PM 60.8 °F - 44.6 °F 55% 30.16 in 10.0 mi NE 12.7 mph 18.4 mph N/A   Clear
3:45 PM 60.8 °F - 44.6 °F 55% 30.17 in 10.0 mi NE 12.7 mph 20.7 mph N/A   Clear
4:50 PM 60.8 °F - 44.6 °F 55% 30.16 in 10.0 mi NE 11.5 mph 17.3 mph N/A   Clear
5:45 PM 60.8 °F - 44.6 °F 55% 30.15 in 10.0 mi North 12.7 mph - N/A   Clear
6:45 PM 59.0 °F - 44.6 °F 59% 30.14 in 10.0 mi North 12.7 mph - N/A   Clear
7:50 PM 57.2 °F - 44.6 °F 63% 30.14 in 10.0 mi NE 10.4 mph - N/A   Clear
8:45 PM 55.4 °F - 44.6 °F 67% 30.14 in 10.0 mi NE 6.9 mph - N/A   Clear
9:45 PM 50.0 °F - 42.8 °F 76% 30.16 in 10.0 mi NE 6.9 mph - N/A   Clear
10:17 PM 48.6 °F - 43.2 °F 82% 30.17 in 10.0 mi NE 4.6 mph - N/A   Clear
10:37 PM 48.2 °F - 42.8 °F 82% 30.16 in 10.0 mi Calm Calm - N/A   Clear
10:56 PM 46.4 °F 43.5 °F 42.8 °F 87% 30.16 in 10.0 mi NNE 5.8 mph - N/A   Clear
11:17 PM 45.7 °F 44.4 °F 41.9 °F 87% 30.16 in 10.0 mi NNE 3.5 mph - N/A   Clear
11:37 PM 43.3 °F - 39.7 °F 87% 30.16 in 10.0 mi Calm Calm - N/A   Clear
11:57 PM 43.7 °F 42.1 °F 40.8 °F 90% 30.16 in 10.0 mi North 3.5 mph - N/A   Clear